Home   Weather   Hamm   Past weeks

Flag for Germany Past Weather in Hamm, North Rhine-Westphalia, Germany — Yesterday and Last 2 Weeks

Now
59 °F

Passing clouds.


Feels Like: 58 °F
Forecast: 59 / 69 °F
Wind: 6 mph from Northwest

Location: Muenster / Osnabrueck

Current Time: Jul 26, 2017 at 2:52:51 am

Latest Report: Jul 26, 2017 at 2:20 am


Visibility: N/A

Pressure: 29.77 "Hg

Humidity: 100%

Dew Point: 59 °F

Location of HammLocation

Past Weather in Hamm — Graph

°F

Hamm Temperature Yesterday

Maximum temperature yesterday: 64 °F (at 2:20 pm)
Minimum temperature yesterday: 57 °F (at 12:20 am)
Average temperature yesterday: 60 °F

High & Low Weather Summary for the Past Weeks

 TemperatureHumidityPressure
High90 °F (Jul 19, 3:20 pm)100% (Jul 11, 3:20 am)30.21 "Hg (Jul 11, 3:20 am)
Low46 °F (Jul 13, 3:50 am)38% (Jul 19, 5:20 pm)29.68 "Hg (Jul 25, 4:20 pm)
Average64 °F77%29.95 "Hg
* Reported Jul 11 1:20 am — Jul 26 1:50 am, Hamm. Weather by CustomWeather, © 2017

Note: Actual official high and low records may vary slightly from our data, if they occured in-between our weather recording intervals... More about our weather records

Advertising

Hamm Weather History for the Previous 24 Hours

Scroll right to see more
 ConditionsComfort  
Time TempWeatherWind HumidityBarometerVisibility
1:50 am
Wed, Jul 26
59 °FPassing clouds.7 mph100%29.77 "HgN/A
1:23 am59 °FPassing clouds.7 mph94%29.74 "HgN/A
12:50 am59 °FPartly cloudy.7 mph94%29.74 "HgN/A
12:20 am61 °FPassing clouds.9 mph94%29.77 "HgN/A
11:50 pm
Tue, Jul 25
61 °FMostly cloudy.8 mph94%29.77 "HgN/A
11:20 pm61 °FLight rain. Mostly cloudy.8 mph94%29.74 "HgN/A
10:50 pm61 °FLight rain. Mostly cloudy.9 mph94%29.74 "HgN/A
10:29 pm61 °FLight rain. Mostly cloudy.7 mph94%29.74 "HgN/A
10:20 pm61 °FLight rain. Mostly cloudy.8 mph88%29.74 "HgN/A
9:50 pm61 °FLight rain. Mostly cloudy.10 mph94%29.74 "HgN/A
9:27 pm61 °FRain showers. Mostly cloudy.10 mph94%29.74 "Hg2 mi
8:52 pm61 °FRain showers. Mostly cloudy.12 mph94%29.74 "Hg3 mi
8:50 pm61 °FSprinkles. Mostly cloudy.12 mph94%29.71 "Hg3 mi
8:20 pm61 °FLight rain. Mostly cloudy.10 mph100%29.71 "HgN/A
7:50 pm61 °FLight rain. Mostly cloudy.10 mph94%29.71 "HgN/A
7:20 pm61 °FLight rain. Mostly cloudy.13 mph94%29.71 "HgN/A
6:50 pm61 °FSprinkles. More clouds than sun.10 mph94%29.71 "HgN/A
6:20 pm61 °FLight rain. Partly sunny.10 mph94%29.71 "HgN/A
5:50 pm61 °FLight rain. Partly sunny.13 mph94%29.71 "HgN/A
5:20 pm63 °FLight rain. Broken clouds.13 mph88%29.68 "HgN/A
4:50 pm63 °FSprinkles. More clouds than sun.7 mph94%29.68 "HgN/A
4:20 pm64 °FSprinkles. More clouds than sun.10 mph88%29.68 "HgN/A
3:50 pm64 °FSprinkles. More clouds than sun.8 mph88%29.71 "HgN/A
3:20 pm64 °FSprinkles. More clouds than sun.10 mph88%29.71 "HgN/A
2:50 pm64 °FScattered showers. More clouds than sun.12 mph88%29.71 "HgN/A
2:20 pm64 °FSprinkles. More clouds than sun.8 mph94%29.71 "HgN/A
1:50 pm63 °FSprinkles. More clouds than sun.8 mph94%29.71 "HgN/A
1:20 pm63 °FLight rain. Mostly cloudy.9 mph88%29.74 "HgN/A
12:54 pm63 °FSprinkles. More clouds than sun.8 mph94%29.74 "Hg6 mi
12:20 pm61 °FSprinkles. More clouds than sun.6 mph94%29.74 "HgN/A
11:50 am61 °FLight rain. Mostly cloudy.8 mph94%29.74 "HgN/A
11:20 am61 °FLight rain. Mostly cloudy.7 mph94%29.77 "HgN/A
10:50 am61 °FLight rain. Partly sunny.7 mph94%29.77 "HgN/A
10:20 am59 °FLight rain. Partly sunny.7 mph100%29.77 "HgN/A
10:01 am59 °FLight rain. Partly sunny.6 mph94%29.77 "HgN/A
9:50 am59 °FLight rain. Broken clouds.6 mph94%29.77 "HgN/A
9:32 am57 °FLight rain. Partly sunny.7 mph94%29.77 "HgN/A
8:50 am57 °FRain. Mostly cloudy.6 mph94%29.77 "Hg4 mi
8:20 am57 °FLight rain. Mostly cloudy.6 mph94%29.77 "HgN/A
7:50 am57 °FLight rain. More clouds than sun.7 mph100%29.77 "Hg6 mi
7:20 am59 °FLight rain. Cloudy.6 mph94%29.77 "Hg4 mi
6:50 am57 °FDrizzle. Partly sunny.5 mph100%29.77 "Hg4 mi
6:20 am57 °FLight rain. Broken clouds.2 mph94%29.77 "Hg5 mi
5:50 am57 °FLight rain. More clouds than sun.5 mph94%29.77 "Hg5 mi
5:20 am57 °FRain. Mostly cloudy.5 mph94%29.80 "Hg4 mi
4:50 am57 °FRain. Fog.6 mph100%29.80 "Hg3 mi
4:20 am57 °FRain. Fog.6 mph100%29.80 "Hg3 mi
3:50 am57 °FRain. Fog.8 mph94%29.80 "Hg2 mi
3:20 am57 °FRain. Fog.7 mph94%29.80 "Hg3 mi
2:50 am57 °FRain. Fog.6 mph100%29.80 "Hg3 mi
2:20 am57 °FRain. Fog.5 mph94%29.80 "Hg3 mi
Weather by CustomWeather, © 2017

See weather overviewHow to use our weather pages